Columbia, MO

2:38 AM CST on December 06, 2019 (GMT -0600)
Columbia Regional

Weather History for KCOU - November, 2019

Change the Weather History Date:

Monday, November 18, 2019

  Actual Average Record
Temperature  
Mean Temperature 42 °F 43 °F  
Max Temperature 53 °F 53 °F 78 °F (1930)
Min Temperature 30 °F 34 °F 8 °F (1891)
Degree Days  
Heating Degree Days 23 22  
Month to date heating degree days 465 320  
Since 1 July heating degree days 843 685  
Cooling Degree Days 0 0  
Month to date cooling degree days 0 0  
Year to date cooling degree days 1590 1247  
Moisture  
Dew Point 37 °F    
Average Humidity 76    
Maximum Humidity 96    
Minimum Humidity 56    
Precipitation  
Precipitation T in 0.11 in 2.77 in (1985)
Month to date precipitation 0.04 1.95  
Year to date precipitation 40.95 38.88  
Snow  
Snow 0.00 in 0.00 in 2.40 in (1961)
Month to date snowfall 1.1 0.3  
Since 1 July snowfall 1.5 0.3  
Since 1 September snowfall 1.5 0.3  
Snow Depth 0.00 in    
Sea Level Pressure  
Sea Level Pressure 29.80 in    
Wind  
Wind Speed 6 mph (SSW)    
Max Wind Speed 12 mph    
Max Gust Speed 14 mph    
Visibility 10 miles    
Events      
T = Trace of Precipitation, MM = Missing Value Source: NWS Daily Summary

Daily Weather History Graph

Daily Weather History Graph

Search for Another Location

Airport or City:

Astronomy

Nov. 18, 2019 Rise Set
Actual Time 6:54 AM CST 4:53 PM CST
Civil Twilight 6:25 AM CST 5:21 PM CST
Nautical Twilight 5:53 AM CST 5:54 PM CST
Astronomical Twilight 5:21 AM CST 6:25 PM CST
Moon 10:38 PM CST (11/18) 12:25 PM CST (11/18)
Length of Visible Light 10h 56m
Length of Day
9h 58m
Waning Gibbous, 63% of the Moon is Illuminated
Nov 18
Waning Gibbous
Nov 19
Last Quarter
Nov 26
New
Dec 4
First Quarter
Dec 11
Full

Hourly Weather History & Observations

Time (CST) Temp. Windchill Dew Point Humidity Pressure Visibility Wind Dir Wind Speed Gust Speed Precip Events Conditions
12:54 AM 41.0 °F 37.1 °F 37.0 °F 86% 29.91 in 10.0 mi West 5.8 mph - N/A   Scattered Clouds
1:54 AM 39.0 °F 34.8 °F 35.1 °F 86% 29.91 in 10.0 mi WSW 5.8 mph - N/A   Clear
2:54 AM 37.9 °F 33.5 °F 35.1 °F 89% 29.90 in 10.0 mi West 5.8 mph - N/A   Clear
3:54 AM 37.0 °F 32.4 °F 33.1 °F 86% 29.89 in 10.0 mi WNW 5.8 mph - N/A   Clear
4:54 AM 35.1 °F 32.2 °F 32.0 °F 89% 29.88 in 9.0 mi West 3.5 mph - N/A   Clear
5:54 AM 34.0 °F 29.8 °F 32.0 °F 92% 29.88 in 6.0 mi WSW 4.6 mph - N/A   Clear
6:54 AM 34.0 °F 31.0 °F 30.9 °F 89% 29.89 in 10.0 mi SW 3.5 mph - N/A   Clear
7:54 AM 33.1 °F 28.7 °F 32.0 °F 96% 29.89 in 10.0 mi SSW 4.6 mph - N/A   Clear
8:54 AM 39.9 °F 36.7 °F 36.0 °F 86% 29.88 in 10.0 mi South 4.6 mph - N/A   Clear
9:54 AM 44.1 °F 41.5 °F 37.9 °F 79% 29.85 in 10.0 mi SE 4.6 mph - N/A   Clear
10:54 AM 46.9 °F - 37.9 °F 71% 29.84 in 10.0 mi South 4.6 mph - N/A   Scattered Clouds
11:54 AM 48.9 °F - 39.9 °F 71% 29.81 in 10.0 mi South 5.8 mph - N/A   Overcast
12:54 PM 51.1 °F - 39.9 °F 66% 29.78 in 10.0 mi SSE 6.9 mph - N/A   Overcast
1:54 PM 53.1 °F - 39.0 °F 59% 29.74 in 10.0 mi SSE 11.5 mph - N/A   Overcast
2:54 PM 53.1 °F - 37.9 °F 57% 29.72 in 10.0 mi SSE 6.9 mph - N/A   Overcast
3:54 PM 52.0 °F - 37.9 °F 59% 29.73 in 10.0 mi SSE 4.6 mph - N/A   Overcast
4:54 PM 51.1 °F - 37.0 °F 59% 29.73 in 10.0 mi SE 5.8 mph - N/A   Overcast
5:54 PM 51.1 °F - 37.0 °F 59% 29.73 in 10.0 mi SE 5.8 mph - N/A   Overcast
6:54 PM 48.9 °F - 37.9 °F 66% 29.72 in 10.0 mi SSE 5.8 mph - N/A   Overcast
7:54 PM 50.0 °F - 37.9 °F 63% 29.72 in 10.0 mi SSW 4.6 mph - N/A   Overcast
8:54 PM 48.0 °F - 39.9 °F 74% 29.72 in 10.0 mi WSW 4.6 mph - 0.00 in   Overcast
9:54 PM 46.9 °F - 41.0 °F 80% 29.70 in 10.0 mi SSE 4.6 mph - N/A   Overcast
10:54 PM 48.0 °F - 41.0 °F 77% 29.70 in 10.0 mi West 8.1 mph - N/A   Overcast
11:54 PM 46.9 °F - 39.9 °F 77% 29.70 in 10.0 mi West 4.6 mph - N/A   Overcast